1KUNS-PF (43466 NORAD) Tracking and Keplerian Element Data

This shows tracking and keplerian element data for the satellite.

Feedback or suggestion? Click here.




ElementValue
Catalog43466
Name1KUNS-PF
Epoch Orbit5414
Epoch Day113.66566032
Epoch Year2019
RAAN258.3991
Inclination51.6376
Eccentricity0.0001032
Argument of Perigee271.7371
Mean Anonmoly88.3506
Mean Motion15.64186825
Decay Rate0.00017821
L11 43466U 98067NP 19113.66566032 .00017821 00000-0 18893-3 0 9993
L22 43466 51.6376 258.3991 0001032 271.7371 88.3506 15.64186825 54144

Live tracking and technical data element details for 1KUNS-PF (NORAD 43466). 1KUNS-PF can be tracked NOW for your location showing map with azimuth and elevation plus other details from your city location.

Track the satellite on the map from your city or location and see movement details for azimuth, elevation, latitude, longitude, range, height, and movement on the map or in text.







IsCatalogInMostPopularTable: catalog: 43466, numindb: 144
Update: records affected: 1



GetName: 43466 1KUNS-PF

Hit Count: updated at: Wed, 24 Apr 2019 18:43:01 GMT